Location: Saint-Palais-sur-Mer
(45.6429°N, 1.0859°W)
Time: 16:07:50
(UTC+01:00)

S-56A Canister/Altair - Pass Details

Date: 15 February 2026
Orbit: 633 x 2484 km, 38.9° (Epoch: 16 March)

Event Time Altitude Azimuth Distance (km) Brightness Sun altitude
Exits shadow 07:31:18 - 271° (W) 4,334 10.7 -6.8°
Reaches altitude 10° 07:32:24 10° 267° (W) 4,120 10.6 -6.6°
Maximum altitude 07:41:34 29° 214° (SW) 3,401 10.6 -5.0°
Drops below altitude 10° 07:52:48 10° 163° (SSE) 5,075 12.2 -3.1°
Sets 07:57:43 0° 153° (SSE) 6,142 12.8 -2.3°
